Flag for Norway Weather past 2 weeks in Orkanger/Fannrem, Norway

Now
55 °F

Cool.


Feels Like: 55 °F
Forecast: 36 / 56 °F
Wind: 2 mph from Northeast

Location: Vinjeora Ii


UV Index: 0 (Low)

Visibility: N/A


Pressure: 30.21 "Hg

Humidity: 44%

Dew point: 33 °F

Location of Orkanger/FannremLocation

Historic Weather in Orkanger/Fannrem

°F

Orkanger/Fannrem temperature yesterday

Maximum temperature yesterday: 51 °F (at 4:00 PM)
Minimum temperature yesterday: 36 °F (at 7:00 AM)
Average temperature yesterday: 43 °F

Past Weeks' High & Low Weather Summary

 TemperatureHumidityPressure
High59 °F (Apr 19, 5:00 PM)93% (Apr 14, 8:00 AM)30.32 "Hg (Apr 14, 8:00 AM)
Low32 °F (Apr 14, 6:00 AM)24% (Apr 19, 12:00 AM)29.00 "Hg (Apr 13, 3:00 AM)
Average46 °F56%29.76 "Hg
* Reported Apr 4 6:00 PM — Apr 19 6:00 PM, Orkanger/Fannrem, Weather by CustomWeather, © 2014

Note: Actual official high and low records may vary slightly from our data, if they occured in-between our weather recording intervals... More about our weather records

Advertising

Historic Weather Conditions — Data for Previous 24 hours

 ConditionsComfort  
Time TempWeatherWind HumidityBarometerVisibility
6:00 PM
Apr 19
57 °FRefreshingly cool.2 mph43%30.20 "HgN/A
5:00 PM59 °FRefreshingly cool.1 mph37%30.20 "HgN/A
4:00 PM58 °FRefreshingly cool.No wind38%30.20 "HgN/A
3:00 PM57 °FRefreshingly cool.1 mph40%30.21 "HgN/A
2:00 PM56 °FRefreshingly cool.2 mph39%30.20 "HgN/A
1:00 PM54 °FCool.2 mph40%30.19 "HgN/A
12:00 PM52 °FCool.5 mph40%30.19 "HgN/A
11:00 AM50 °FCool.3 mph37%30.18 "HgN/A
10:00 AM49 °FCool.5 mph35%30.18 "HgN/A
9:00 AM48 °FCool.6 mph33%30.17 "HgN/A
8:00 AM46 °FCool.7 mph40%30.16 "HgN/A
7:00 AM46 °FCool.6 mph35%30.15 "HgN/A
6:00 AM47 °FCool.6 mph32%30.14 "HgN/A
5:00 AM48 °FCool.6 mph30%30.12 "HgN/A
4:00 AM48 °FCool.7 mph29%30.12 "HgN/A
3:00 AM48 °FCool.6 mph28%30.12 "HgN/A
2:00 AM48 °FCool.3 mph25%30.12 "HgN/A
1:00 AM48 °FCool.7 mph24%30.11 "HgN/A
12:00 AM48 °FCool.5 mph24%30.11 "HgN/A
10:00 PM
Apr 18
47 °FCool.5 mph26%30.09 "HgN/A
9:00 PM47 °FCool.3 mph27%30.09 "HgN/A
8:00 PM46 °FCool.2 mph32%30.08 "HgN/A
7:00 PM42 °FQuite cool.1 mph59%30.07 "HgN/A
Weather by CustomWeather, © 2014

See weather overview